Theta_e
323 322 322 321 320 320 320 318 313 308 312 314 317 325 326 326 324 323 324 312 310 309 309 312 315 317 317 318 319 320 321 321 320 320 320 321 323 325
322 321 320 320 319 320 319 319 319 315 310 315 319 321 325 326 324 324 324 315 309 308 307 308 311 314 314 315 315 316 317 318 318 318 319 319 322 324
318 318 318 318 318 319 320 320 319 318 314 312 315 319 320 323 324 323 324 322 315 306 305 306 306 308 309 310 310 312 313 314 315 316 317 318 320 323
316 316 315 318 317 317 319 320 319 319 316 310 313 316 317 320 322 321 322 322 322 307 304 304 305 305 306 306 306 307 308 308 310 311 313 315 317 320
307 310 312 314 316 317 318 318 318 318 317 314 313 314 318 315 319 317 319 320 319 312 303 302 303 304 304 305 305 305 305 305 304 305 306 307 310 313
303 303 301 299 300 301 304 302 305 314 316 315 315 311 308 308 314 315 310 307 312 304 304 304 304 303 303 304 304 304 305 304 303 303 303 301 302 306
296 297 296 295 293 292 295 295 297 301 307 313 313 299 300 301 307 310 313 308 305 300 305 306 306 305 305 302 306 304 303 303 303 303 302 301 300 302
290 291 294 292 292 290 288 289 291 295 298 302 308 300 303 304 303 305 305 293 299 295 300 303 302 305 307 306 304 301 300 301 301 302 301 301 300 301
286 287 289 290 289 289 287 287 288 289 287 293 296 302 304 302 306 302 303 302 306 294 302 299 289 300 291 294 296 299 299 299 299 299 299 298 298 298
284 286 287 287 285 285 284 284 286 288 290 291 293 295 299 303 306 310 308 298 289 288 290 290 286 290 286 287 293 295 295 295 296 296 297 296 296 296
281 282 285 284 284 285 283 283 284 285 288 290 290 291 290 291 293 295 291 291 288 287 287 291 285 286 286 285 286 292 294 294 295 295 295 296 296 295
279 280 281 281 283 283 283 283 282 284 285 286 287 288 290 292 291 297 300 300 287 287 287 292 284 286 286 284 285 285 286 292 293 294 294 295 294 296
278 279 279 282 283 285 285 284 284 285 285 285 286 287 288 290 293 293 300 302 291 291 291 292 285 284 285 281 282 284 285 286 286 290 293 294 294 292
278 279 280 283 284 284 284 285 285 284 284 284 285 286 287 289 291 293 292 293 290 296 290 291 286 287 284 279 280 282 283 285 286 286 288 292 292 290
280 281 282 283 282 281 283 283 282 280 281 281 281 283 285 287 287 287 285 286 286 286 289 290 288 287 288 285 280 280 281 283 285 285 286 287 286 287
277 279 278 279 276 276 277 279 280 278 278 279 280 281 284 285 286 286 285 285 285 285 285 286 287 288 285 285 284 282 281 280 284 284 285 285 286 286
275 274 274 275 275 275 276 276 277 278 277 277 277 279 280 282 284 285 285 285 285 283 282 284 285 285 285 285 283 284 282 281 283 283 283 282 283 284
272 270 270 271 272 273 274 274 275 276 275 276 277 277 277 279 281 284 285 285 286 284 282 282 283 283 282 283 285 282 282 282 283 283 283 281 280 283
269 269 268 269 271 272 272 273 273 275 275 276 276 276 277 278 279 281 283 284 283 284 283 283 284 284 281 279 280 285 281 281 281 281 282 282 280 281
268 268 267 268 269 270 271 271 272 274 274 273 274 275 276 277 278 279 281 282 283 280 280 282 284 285 285 281 277 280 284 281 281 280 280 281 282 283
267 266 267 267 267 268 269 270 271 272 272 271 273 274 274 276 277 278 279 280 281 280 280 280 282 282 282 282 278 278 281 284 283 281 280 279 278 279
266 266 266 266 266 267 268 269 269 270 272 273 273 274 275 276 277 278 278 279 279 280 279 280 282 282 280 279 277 278 279 281 283 283 283 282 279 276
264 265 265 266 266 267 267 268 268 269 270 271 272 274 274 275 277 278 278 279 278 278 279 278 280 280 280 279 278 277 277 278 279 279 280 282 283 282
Wind_Speed
10 10 10 8 7 7 7 8 8 8 10 5 7 11 9 8 10 10 15 18 24 24 24 23 24 24 26 26 25 25 25 25 25 25 24 23 23 21
7 10 9 7 8 7 7 7 7 8 7 7 8 5 11 10 11 11 14 16 23 24 24 24 24 26 25 25 25 25 24 23 23 22 22 22 22 22
6 8 8 6 5 5 6 6 7 8 9 5 5 6 7 9 9 11 11 12 10 24 25 25 25 24 24 24 24 24 24 23 22 23 23 23 23 22
5 5 5 5 9 10 8 11 9 9 8 8 5 5 9 10 11 11 10 9 12 15 22 22 23 24 23 24 24 24 23 22 22 23 23 23 23 23
7 8 5 3 3 3 5 6 7 5 7 5 4 3 7 3 7 7 9 10 8 11 20 22 23 24 24 25 25 25 25 24 23 22 21 21 23 23
10 12 14 12 9 7 6 6 6 2 5 5 6 4 2 2 4 6 5 3 6 4 8 13 19 22 25 25 26 27 26 26 24 24 23 21 20 21
13 12 13 13 14 14 7 7 7 4 3 2 5 2 3 3 5 4 9 5 6 4 6 7 7 8 11 15 20 25 25 25 25 25 24 23 22 23
12 10 9 14 13 14 15 10 6 4 3 2 1 4 5 4 3 5 3 3 4 4 6 6 5 8 9 10 20 18 20 22 22 24 25 26 26 26
7 8 11 10 13 11 14 12 8 8 4 4 5 4 3 6 5 5 7 6 6 1 5 5 2 8 3 4 7 14 17 20 20 21 21 22 24 26
16 16 11 8 12 13 10 9 7 6 5 4 7 8 8 10 8 6 9 3 3 1 3 4 1 3 2 1 4 7 10 11 13 16 17 18 19 21
9 8 9 7 18 18 9 8 10 5 4 7 11 13 15 16 11 1 2 4 3 3 2 4 2 2 1 1 2 4 8 10 12 14 17 18 20 19
7 8 13 13 18 17 7 7 8 7 9 10 8 9 8 9 12 7 5 8 3 0 5 5 4 5 2 2 3 2 3 6 11 13 14 14 13 6
8 7 7 18 18 15 13 6 6 10 8 7 6 6 5 6 5 5 8 8 5 4 6 6 4 4 2 1 1 1 0 2 2 4 12 15 18 14
9 8 8 19 19 17 10 10 12 7 5 6 6 5 5 6 6 6 6 5 1 7 9 8 5 6 5 3 3 1 2 1 2 2 3 10 16 22
9 13 19 16 15 8 13 13 7 6 6 5 6 6 5 7 10 7 2 2 2 1 5 10 4 6 5 4 6 4 4 3 2 5 6 8 8 9
12 9 9 7 5 5 6 7 7 5 6 7 7 8 6 5 6 3 3 1 0 1 4 3 6 8 4 2 3 7 4 6 7 5 5 5 7 7
9 7 8 9 9 8 8 8 9 9 8 7 8 8 8 6 6 2 2 2 3 2 1 2 4 6 4 5 4 5 6 3 8 9 9 6 4 7
8 9 8 10 10 11 10 9 8 10 8 9 9 9 9 8 7 6 3 3 4 3 3 2 5 3 2 3 5 7 4 6 5 9 9 8 6 5
8 8 8 9 9 9 9 10 10 9 9 8 9 9 9 9 8 6 6 4 3 2 3 5 7 5 5 4 1 2 5 8 10 8 7 2 6 7
9 9 10 10 10 10 10 9 10 9 8 7 8 8 8 9 8 6 5 6 3 2 2 4 6 7 4 5 4 2 7 9 9 7 6 7 7 14
8 8 8 8 9 10 10 10 10 9 9 8 7 7 7 7 7 6 6 8 4 3 5 5 2 9 8 6 4 3 4 10 9 10 10 9 8 6
8 8 8 8 8 9 9 9 10 10 10 8 9 8 8 7 7 7 6 5 4 3 1 5 8 7 2 3 8 8 7 7 12 15 13 7 6 7
7 8 8 9 9 9 10 10 10 10 10 9 9 9 8 7 7 6 5 4 2 3 6 6 4 3 4 6 12 8 11 12 9 9 9 13 16 20
Wind_Direction
206 191 180 179 175 179 191 190 191 212 218 205 219 210 210 212 217 199 217 204 204 201 202 200 198 200 200 202 204 207 209 209 211 213 213 217 220 218
181 170 176 182 181 183 196 213 216 228 228 187 207 192 195 200 211 200 210 211 204 207 202 200 199 202 198 201 201 204 206 208 211 212 216 218 221 216
149 166 170 155 163 196 208 210 218 213 223 237 197 203 191 209 209 203 208 209 201 209 203 200 200 201 198 197 200 201 202 204 203 207 211 215 220 222
140 143 178 188 216 221 223 221 219 213 212 229 193 200 204 211 219 201 202 205 213 199 211 203 203 203 199 197 197 200 201 204 204 206 209 212 216 220
68 68 70 78 226 217 208 220 219 217 219 207 214 194 213 201 211 216 207 212 204 211 207 205 204 203 203 202 201 201 201 203 205 201 202 205 209 210
52 61 61 46 45 35 51 37 26 296 189 202 222 194 187 241 221 214 224 234 204 192 203 208 208 211 209 204 206 205 205 206 206 204 207 209 208 206
28 41 67 64 62 50 39 13 23 2 324 243 222 132 180 199 196 203 218 203 227 163 209 205 202 204 215 215 220 213 207 208 209 209 211 211 209 206
10 29 30 40 47 49 38 20 2 3 319 294 245 197 203 199 198 199 200 152 241 200 173 213 186 196 213 207 206 203 200 205 208 214 215 215 212 211
2 30 22 25 29 22 16 357 354 337 292 311 289 284 263 213 195 215 200 196 210 273 163 229 168 213 158 153 164 204 203 207 210 214 219 219 219 214
18 14 359 6 11 11 0 338 334 337 338 327 307 301 305 314 295 234 219 195 36 63 105 193 106 230 115 55 178 219 211 200 208 216 218 220 221 224
10 346 351 13 355 1 349 328 332 315 292 303 285 282 288 288 269 258 170 120 229 246 194 137 168 136 258 210 189 200 217 236 220 215 217 219 220 219
349 354 341 335 342 352 349 327 319 326 328 326 320 310 296 291 284 244 208 211 153 85 199 181 152 156 221 200 189 216 133 227 239 218 216 214 201 194
347 338 322 334 338 336 337 299 297 312 326 305 301 302 301 299 283 253 246 219 183 219 182 156 153 159 110 147 265 136 273 145 206 205 183 175 164 149
337 324 323 336 345 339 322 347 359 326 335 327 318 314 317 316 308 300 256 249 262 231 165 170 157 161 146 140 196 175 166 142 171 134 131 140 154 148
343 345 352 353 357 354 351 359 358 5 343 326 318 311 313 303 298 291 331 33 58 32 171 182 152 166 173 159 161 171 128 202 174 146 138 141 141 143
346 348 340 353 341 313 339 359 358 356 344 332 319 310 299 305 303 299 300 306 65 352 18 132 143 156 149 142 120 157 164 172 160 150 131 125 137 153
349 359 1 359 359 354 2 1 357 354 345 335 326 314 310 310 303 276 248 225 226 172 166 36 82 88 48 147 136 167 157 142 161 147 136 139 150 145
6 4 356 355 353 354 350 351 354 347 333 333 323 315 315 314 310 310 250 234 238 178 160 151 146 108 89 23 33 152 169 134 159 153 146 150 150 143
14 3 355 349 344 345 343 343 338 333 325 325 317 317 314 310 308 301 283 254 232 192 166 163 178 179 173 172 47 156 157 146 149 154 156 169 147 143
4 355 350 346 344 340 340 334 331 327 328 321 317 312 307 302 298 291 286 272 224 166 155 179 189 194 215 175 142 115 149 138 150 149 139 111 93 116
357 352 345 340 336 332 332 329 325 324 319 312 307 303 295 291 291 283 278 265 230 170 190 189 175 113 115 101 96 104 129 146 149 149 139 127 137 140
349 345 340 337 332 328 327 325 323 324 324 321 314 305 300 293 289 288 274 256 225 199 139 128 140 137 106 115 137 130 131 123 113 116 98 74 148 154
348 339 333 334 335 334 331 329 327 323 321 319 314 306 301 300 291 280 262 243 190 153 148 141 129 85 118 136 133 129 124 127 132 130 114 103 109 103